Regional Weather Roundup
Issued by NWS

Home | Current Version | Previous Version | Graphics & Text | Print | Product List | Glossary On
Versions: 1 2 3 4 5 6 7 8 9 10 11 12 13 14 15 16 17 18 19 20 21 22 23 24 25 26 27 28 29 30 31 32 33 34 35 36 37 38 39 40 41 42 43 44 45 46 47 48 49 50
727
ASUS45 KABQ 191301
RWRNM
NEW MEXICO REGIONAL WEATHER ROUNDUP
NATIONAL WEATHER SERVICE ALBUQUERQUE NM
700 AM MDT THU OCT 19 2017

NOTE: "FAIR" MEANS FEW OR NO CLOUDS BELOW 12,000 FEET AGL WITH NO
       SIGNIFICANT WEATHER OR OBSTRUCTIONS TO VISION.

      THIS PRODUCT IS RELEASED AS TWO VERSIONS.  ONE VERSION NEAR
      THE TOP OF THE HOUR CONTAINING PRELIMINARY DATA FROM ALBUQUERQUE
      AND OTHER STATIONS.  A FINAL VERSION WITH ADDITIONAL DATA IS
      ISSUED ABOUT 10 MINUTES AFTER THE HOUR.

NMZ501-503-504-510>518-191400-
NORTHWEST PLATEAU/NORTHCENTRAL MOUNTAINS

CITY           SKY/WX    TMP DP  RH WIND       PRES   REMARKS
FARMINGTON     FAIR      43  26  51 E8        30.13S
LOS ALAMOS     FAIR      47  18  31 NW5       30.23S
SANTA FE       FAIR      44  23  43 N15       30.18S
TAOS           FAIR      29  19  66 N3        30.27S
ANGEL FIRE     FAIR      19  16  90 CALM      30.34S

$$
NMZ402-403-502-505>509-191400-
WESTCENTRAL MOUNTAINS/SOUTHWEST MOUNTAINS

CITY           SKY/WX    TMP DP  RH WIND       PRES   REMARKS
GALLUP         FAIR      44  24  45 CALM      30.18F
GRANTS         FAIR      40  27  60 W3        30.21S
SILVER CITY    FAIR      51  44  76 N6        30.13R

$$
NMZ407-409-411-412-191400-
SOUTHERN DESERTS

CITY           SKY/WX    TMP DP  RH WIND       PRES   REMARKS
DEMING         FAIR      54  48  80 NE7       30.08R
LAS CRUCES     CLOUDY    59  55  86 E5        30.10F
HOLLOMAN AFB   MOCLDY    59  47  63 W6        30.10R
ALAMOGORDO     FAIR      59  46  63 CALM      30.09S
T OR C         FAIR      58  46  64 CALM      30.10S

$$
NMZ519>523-191400-
CENTRAL VALLEYS/CENTRAL HIGHLANDS

CITY           SKY/WX    TMP DP  RH WIND       PRES   REMARKS
ALBUQUERQUE    CLOUDY    51  26  37 N6        30.14S
DOUBLE EAGLE   MOCLDY    48  25  40 NE9       30.16S
MORIARTY ARPT  FAIR      37  32  84 CALM      30.20S
CLINES CORNERS NOT AVBL
BELEN          FAIR      46  31  56 NW6       30.14S
SOCORRO        FAIR      52  31  45 NW7       30.13R

$$
NMZ524>526-539-540-191400-
SOUTHCENTRAL MOUNTAINS

CITY           SKY/WX    TMP DP  RH WIND       PRES   REMARKS
RUIDOSO        FAIR      54  39  58 W6        30.22S

$$
NMZ527>531-191400-
NORTHEAST HIGHLANDS/NORTHEAST PLAINS

CITY           SKY/WX    TMP DP  RH WIND       PRES   REMARKS
LAS VEGAS      FAIR      37  24  59 NE3       30.22R
RATON          FAIR      35  27  72 NE9       30.18S WCI  28
CLAYTON        FAIR      47  36  65 W3        30.10R

$$
NMZ532>537-191400-
EASTCENTRAL PLAINS

CITY           SKY/WX    TMP DP  RH WIND       PRES   REMARKS
SANTA ROSA     FAIR      45  36  70 CALM      30.10S
CANNON AFB     NOT AVBL
CLOVIS AIRPORT FAIR      48  45  89 S3        30.10R

$$
NMZ028-029-538-191400-
SOUTHEAST PLAINS

CITY           SKY/WX    TMP DP  RH WIND       PRES   REMARKS
ROSWELL        MOCLDY    56  47  71 N10       30.05R
ARTESIA        FAIR      57  46  67 S5        30.07R
CARLSBAD       LGT RAIN  56  56 100 S9        30.03F
HOBBS          PTCLDY    48  45  87 E5        30.07R


$$




USA.gov is the U.S. government's official web portal to all federal, state and local government web resources and services.